{"data":{"norad_id":68344,"epoch":"2026-05-25T00:19:18.712128Z","epoch_age_seconds":84210,"freshness":"FRESH","line1":"1 68344U 26059Z   26145.01341102  .00012770  00000+0  45382-3 0  9998","line2":"2 68344  53.1578 354.2882 0001193  89.6301 270.4836 15.29375776  9853","mean_motion":15.29375776,"eccentricity":0.0001193,"inclination_deg":53.1578,"raan_deg":354.2882,"arg_perigee_deg":89.6301,"mean_anomaly_deg":270.4836,"bstar":0.00045382,"rev_number":985,"period_min":94.156061747378,"perigee_km":476.85926026585,"apogee_km":478.49505752416,"semimajor_km":6855.814158895,"source":"CELESTRAK","updated_at":"2026-05-25T13:38:21.926500Z"}}